This is the latest recevied weather packets stored in our database for station/object KD8OZS. If no packets are shown the sender has not sent any weather packets the latest 10 day(s).
| Time | Temp. | Humidity | Pressure | Rain* | Wind** | Luminosity | Snow |
|---|---|---|---|---|---|---|---|
| 1777248634 | 12.78° C | 84% | 1011.4 hPa | 0 mm | - | 5 W/m² | - |
| 1777248330 | 13.33° C | 83% | 1011.4 hPa | 0 mm | - | 8 W/m² | - |
| 1777248026 | 13.89° C | 81% | 1011.4 hPa | 0 mm | - | 10 W/m² | - |
| 1777247720 | 14.44° C | 79% | 1011.4 hPa | 0 mm | - | 14 W/m² | - |
| 1777247418 | 15° C | 76% | 1011.4 hPa | 0 mm | - | 17 W/m² | - |
| 1777247115 | 15° C | 74% | 1011.6 hPa | 0 mm | - | 22 W/m² | - |
| 1777246812 | 15° C | 74% | 1011.6 hPa | 0 mm | - | 24 W/m² | - |
| 1777246507 | 15° C | 74% | 1011.3 hPa | 0 mm | - | 26 W/m² | - |
| 1777246204 | 15° C | 74% | 1011.3 hPa | 0 mm | - | 26 W/m² | - |
| 1777245902 | 15° C | 74% | 1011.2 hPa | 0 mm | - | 27 W/m² | - |
| 1777245600 | 15° C | 74% | 1011.3 hPa | 0 mm | - | 29 W/m² | - |
| 1777245296 | 15° C | 73% | 1011.4 hPa | 0 mm | - | 31 W/m² | - |
| 1777244992 | 15.56° C | 73% | 1011.4 hPa | 0 mm | - | 42 W/m² | - |
| 1777244688 | 15° C | 72% | 1011.6 hPa | 0 mm | - | 35 W/m² | - |
| 1777244384 | 15° C | 73% | 1011.7 hPa | 0 mm | - | 36 W/m² | - |
| 1777244081 | 15° C | 74% | 1011.7 hPa | 0 mm | - | 62 W/m² | - |
| 1777243779 | 15° C | 73% | 1011.7 hPa | 0 mm | - | 39 W/m² | - |
| 1777243476 | 15° C | 72% | 1011.7 hPa | 0 mm | - | 57 W/m² | - |
| 1777243172 | 15° C | 73% | 1011.7 hPa | 0 mm | - | 40 W/m² | - |
| 1777242868 | 15° C | 72% | 1011.6 hPa | 0 mm | - | 41 W/m² | - |
| 1777242566 | 15° C | 72% | 1011.8 hPa | 0 mm | - | 43 W/m² | - |
| 1777242261 | 15° C | 74% | 1011.8 hPa | 0 mm | - | 45 W/m² | - |
| 1777241959 | 15° C | 74% | 1011.8 hPa | 0 mm | - | 48 W/m² | - |
| 1777241656 | 15° C | 74% | 1011.8 hPa | 0 mm | - | 50 W/m² | - |
| 1777241352 | 15° C | 74% | 1011.8 hPa | 0 mm | - | 52 W/m² | - |
* Rain latest hour (hover to see other rain measurements)
** Current wind speed in m/s (hover to see current wind gust speed)